Tracking 19176 objects as of 25-May-2018
HD Live streaming from Space Station
objects crossing your sky now

GOES 1 (SMS-C)

Track GOES 1 (SMS-C) now!
GOES 1 (SMS-C) is classified as:


NORAD ID: 8366
Int'l Code: 1975-100A
Perigee: 35,787.6 km
Apogee: 35,819.4 km
Inclination: 11.5 °
Period: 1,436.6 minutes
Semi major axis: 42174 km
RCS: 3.1655 m2 (large)
Launch date: October 16, 1975
Source: United States (US)
Launch site: AIR FORCE EASTERN TEST RANGE (AFETR)
aabbcc
Your satellite tracking list
Your tracking list is empty




NASA's NSSDC Master Catalog

Two Line Element Set (TLE):
1  8366U 75100A   18144.54419083 -.00000038 +00000-0 +00000-0 0  9990
2  8366 011.4666 314.4030 0003773 314.9360 048.7644 01.00237078155530
Source of the keplerian elements: AFSPC